Powrót do katalogu

STARLINK-4034

AktywnyŁącznośćVLEO
NORAD 52700·PAYLOAD·🇺🇸 United States

Wystrzelony May 18, 2022 z Cape Canaveral Space Force Station

Loading…

Następne Przeloty (najbliższe 24 godziny)

TLE

ŚwieżeSource: CelesTrak SupGP

Epoka: Sep 14, 2026, 21:07 UTC

1 52700C 22053AW  26257.88034722  .00000811  00000+0  23960-4 0  2572
2 52700  53.1600  14.0468 0001006  78.2660 291.2933 15.34392256    10

Śledź STARLINK-4034 w czasie rzeczywistym z AllMySat

Download on the App Store